Location: Iesi
(43.5167°N, 13.2333°E)
Time: 02:31:14
(UTC+00:00)

Cosmos 2251 Rocket - Pass Details

Date: 08 August 2020
Orbit: 764 x 792 km, 74.0° (Epoch: 19 September)

Event Time Altitude Azimuth Distance (km) Brightness Sun altitude
Rises 19:15:07 0° 208° (SSW) 3,220 6.7 -9.6°
Reaches altitude 10° 19:17:30 10° 212° (SSW) 2,301 6.0 -10.0°
Maximum altitude 19:22:40 62° 293° (WNW) 871 4.1 -10.8°
Drops below altitude 10° 19:27:55 10° 14° (NNE) 2,333 6.3 -11.6°
Sets 19:30:21 0° 18° (NNE) 3,269 7.0 -11.9°
